Location: Peterborough
(44.3091°N, 78.3197°W)
Time: 18:00:32
(UTC-04:00)

Transit 4A - Pass Details

Date: 24 March 2023
Orbit: 864 x 980 km, 66.8° (Epoch: 04 June)

Event Time Altitude Azimuth Distance (km) Brightness Sun altitude
Rises 06:52:13 0° 181° (S) 3,427 10.8 -3.9°
Reaches altitude 10° 06:54:53 10° 172° (S) 2,497 10.2 -3.4°
Maximum altitude 06:59:56 33° 110° (ESE) 1,435 9.8 -2.5°
Drops below altitude 10° 07:05:05 10° 49° (NE) 2,545 11.1 -1.6°
Sets 07:07:49 0° 40° (NE) 3,504 11.6 -1.1°
